Flag for Canada Weather past 2 weeks in Hamilton, Ontario, Canada

Now
32 °F

Passing clouds.


Feels Like: 27 °F
Forecast: 29 / 50 °F
Wind: 5 mph from North

Location: Hamilton Airport

Current Time: Apr 25, 2015 at 12:50:50 AM

Latest Report: Apr 25, 2015 at 12:00 AM


Visibility: 15 mi

Pressure: 30.04 "Hg

Humidity: 51%

Dew point: 16 °F

Location of HamiltonLocation

Historic Weather in Hamilton — Graph

°F

Hamilton temperature yesterday

Maximum temperature yesterday: 43 °F (at 4:00 PM)
Minimum temperature yesterday: 27 °F (at 4:00 AM)
Average temperature yesterday: 35 °F

Past Weeks' High & Low Weather Summary

 TemperatureHumidityPressure
High75 °F (Apr 13, 3:00 PM)100% (Apr 9, 11:00 PM)30.41 "Hg (Apr 9, 11:00 PM)
Low27 °F (Apr 24, 4:00 AM)21% (Apr 18, 5:00 PM)29.36 "Hg (Apr 20, 4:00 PM)
Average46 °F66%29.96 "Hg
* Reported Apr 9 11:00 PM — Apr 24 11:00 PM, Hamilton, Weather by CustomWeather, © 2015

Note: Actual official high and low records may vary slightly from our data, if they occured in-between our weather recording intervals... More about our weather records

Advertising

Hamilton weather history for previous 24 hours

 ConditionsComfort  
Time TempWeatherWind HumidityBarometerVisibility
11:00 PM
Fri, Apr 24
34 °FPassing clouds.7 mph48%30.05 "Hg15 mi
10:00 PM36 °FPassing clouds.2 mph41%30.04 "Hg15 mi
9:00 PM36 °FPassing clouds.6 mph41%30.04 "Hg15 mi
7:00 PM41 °FPassing clouds.14 mph42%30.02 "Hg8 mi
6:00 PM41 °FPassing clouds.15 mph45%30.02 "Hg15 mi
5:00 PM43 °FPassing clouds.12 mph46%30.02 "Hg15 mi
4:00 PM43 °FPartly sunny.18 mph46%30.02 "Hg15 mi
3:00 PM41 °FPartly sunny.20 mph45%30.03 "Hg15 mi
2:00 PM41 °FBroken clouds.17 mph45%30.03 "Hg15 mi
1:00 PM39 °FPartly sunny.14 mph48%30.03 "Hg15 mi
12:00 PM37 °FPartly sunny.15 mph45%30.04 "Hg15 mi
11:00 AM37 °FPartly sunny.15 mph48%30.05 "Hg15 mi
10:00 AM34 °FPartly sunny.14 mph56%30.05 "Hg15 mi
9:00 AM34 °FPartly sunny.12 mph56%30.05 "Hg15 mi
8:00 AM32 °FPassing clouds.15 mph60%30.04 "Hg15 mi
7:00 AM30 °FPassing clouds.9 mph64%30.03 "Hg15 mi
6:00 AM28 °FPassing clouds.8 mph80%30.01 "Hg15 mi
5:00 AM27 °FPassing clouds.7 mph86%30.01 "Hg15 mi
4:00 AM27 °FPassing clouds.7 mph86%30.00 "Hg15 mi
3:00 AM28 °FPassing clouds.7 mph80%29.99 "Hg15 mi
2:00 AM28 °FPassing clouds.9 mph80%29.98 "Hg15 mi
1:00 AM30 °FPassing clouds.8 mph75%29.98 "Hg15 mi
12:00 AM30 °FPassing clouds.9 mph69%29.98 "Hg15 mi
Weather by CustomWeather, © 2015

See weather overviewHow to use our weather pages